Home   Weather   Osaka   Past weeks

Flag for Japan Past Weather in Osaka, Japan — Yesterday and Last 2 Weeks

Now
77 °F

Sprinkles. Partly cloudy.


Feels Like: 78 °F
Forecast: 67 / 75 °F
Wind: 1 mph from North

Location: Kansai International Airport

Current Time: Sep 29, 2016 at 3:54:24 AM

Latest Report: Sep 29, 2016 at 3:30 AM


Visibility: N/A

Pressure: 29.86 "Hg

Humidity: 94%

Dew Point: 75 °F

Location of OsakaLocation

Past Weather in Osaka — Graph

°F

Osaka Temperature Yesterday

Maximum temperature yesterday: 82 °F (at 10:00 AM)
Minimum temperature yesterday: 77 °F (at 2:00 AM)
Average temperature yesterday: 79 °F

High & Low Weather Summary for the Past Weeks

 TemperatureHumidityPressure
High90 °F (Sep 17, 12:00 PM)100% (Sep 20, 10:30 AM)30.09 "Hg (Sep 20, 10:30 AM)
Low70 °F (Sep 20, 7:00 AM)52% (Sep 27, 1:30 PM)29.33 "Hg (Sep 20, 1:30 PM)
Average77 °F82%29.92 "Hg
* Reported Sep 14 2:00 AM — Sep 29 2:30 AM, Osaka, Weather by CustomWeather, © 2016

Note: Actual official high and low records may vary slightly from our data, if they occured in-between our weather recording intervals... More about our weather records

Advertising

Osaka Weather History for the Previous 24 Hours

Scroll right to see more
 ConditionsComfort  
Time TempWeatherWind HumidityBarometerVisibility
2:30 AM
Thu, Sep 29
77 °FSprinkles. Partly cloudy.3 mph94%29.86 "HgN/A
2:00 AM77 °FSprinkles. Partly cloudy.5 mph94%29.86 "HgN/A
1:30 AM77 °FSprinkles. Partly cloudy.6 mph94%29.86 "HgN/A
1:00 AM77 °FSprinkles. Partly cloudy.6 mph94%29.86 "HgN/A
12:30 AM77 °FWarm.8 mph94%29.89 "Hg2 mi
12:00 AM77 °FRain showers. Partly cloudy.5 mph94%29.89 "HgN/A
11:30 PM
Wed, Sep 28
79 °FSprinkles. Passing clouds.1 mph89%29.89 "HgN/A
11:00 PM79 °FPartly cloudy.3 mph89%29.89 "HgN/A
10:30 PM79 °FPartly cloudy.3 mph89%29.89 "HgN/A
10:00 PM79 °FPartly cloudy.3 mph89%29.89 "HgN/A
9:30 PM79 °FSprinkles. Partly cloudy.5 mph89%29.92 "HgN/A
9:00 PM79 °FScattered showers. Partly cloudy.6 mph94%29.92 "HgN/A
8:30 PM79 °FScattered showers. Partly cloudy.2 mph94%29.92 "HgN/A
8:00 PM79 °FSprinkles. Partly cloudy.5 mph89%29.92 "HgN/A
7:30 PM79 °FSprinkles. Partly cloudy.6 mph94%29.92 "HgN/A
7:00 PM79 °FPassing clouds.3 mph89%29.89 "HgN/A
6:30 PM79 °FSprinkles. Partly cloudy.7 mph94%29.89 "HgN/A
6:00 PM79 °FSprinkles. Partly cloudy.9 mph89%29.89 "HgN/A
5:46 PM79 °FSprinkles. Broken clouds.13 mph94%29.89 "HgN/A
5:30 PM79 °FRain showers. Broken clouds.12 mph94%29.89 "HgN/A
5:00 PM79 °FRain showers. Broken clouds.12 mph94%29.89 "Hg5 mi
4:00 PM79 °FRain showers. Broken clouds.9 mph94%29.89 "HgN/A
3:30 PM81 °FSprinkles. Broken clouds.9 mph89%29.89 "HgN/A
3:00 PM81 °FSprinkles. Broken clouds.6 mph89%29.86 "HgN/A
2:30 PM81 °FSprinkles. Broken clouds.7 mph89%29.86 "HgN/A
2:00 PM81 °FSprinkles. Broken clouds.8 mph89%29.86 "HgN/A
1:30 PM81 °FRain showers. Partly sunny.8 mph89%29.89 "HgN/A
1:00 PM82 °FPartly sunny.8 mph84%29.89 "HgN/A
12:30 PM82 °FPartly sunny.10 mph84%29.89 "HgN/A
12:00 PM82 °FSprinkles. Broken clouds.9 mph84%29.89 "HgN/A
11:30 AM82 °FSprinkles. Partly sunny.10 mph84%29.92 "HgN/A
11:00 AM81 °FScattered showers. Partly sunny.13 mph89%29.92 "HgN/A
10:30 AM82 °FScattered showers. Partly sunny.13 mph84%29.92 "HgN/A
10:00 AM82 °FSprinkles. Scattered clouds.15 mph84%29.92 "HgN/A
9:30 AM81 °FSprinkles. Broken clouds.17 mph89%29.92 "HgN/A
9:00 AM81 °FSprinkles. Broken clouds.18 mph89%29.92 "HgN/A
8:30 AM81 °FBroken clouds.16 mph89%29.92 "HgN/A
8:00 AM81 °FPartly sunny.14 mph89%29.92 "HgN/A
7:30 AM81 °FBroken clouds.9 mph89%29.92 "HgN/A
7:00 AM79 °FBroken clouds.3 mph89%29.92 "HgN/A
6:30 AM79 °FPartly sunny.5 mph89%29.92 "HgN/A
6:00 AM79 °FSprinkles. Broken clouds.6 mph89%29.92 "HgN/A
5:30 AM77 °FSprinkles. Partly cloudy.3 mph94%29.92 "HgN/A
5:00 AM77 °FSprinkles. Partly cloudy.5 mph94%29.92 "HgN/A
4:30 AM77 °FSprinkles. Partly cloudy.5 mph94%29.92 "HgN/A
4:00 AM77 °FSprinkles. Passing clouds.5 mph94%29.92 "HgN/A
3:30 AM77 °FSprinkles. Passing clouds.6 mph94%29.95 "HgN/A
3:00 AM77 °FRain showers. Partly cloudy.5 mph94%29.95 "Hg6 mi
Weather by CustomWeather, © 2016

See weather overviewHow to use our weather pages